Location: ???????
(55.3754°N, 39.3545°E)
Time: 02:10:46
(UTC+00:00)

Meteor 2-8 Rocket - Pass Details

Date: 14 April 2026
Orbit: 936 x 958 km, 82.5° (Epoch: 20 May)

Event Time Altitude Azimuth Distance (km) Brightness Sun altitude
Exits shadow 19:07:24 16° 195° (SSW) 2,230 6.0 -19.1°
Maximum altitude 19:12:20 82° 282° (WNW) 958 4.5 -19.5°
Drops below altitude 10° 19:18:26 10° 11° (N) 2,664 7.4 -20.0°
Sets 19:20:56 0° 13° (NNE) 3,611 8.2 -20.2°
